www.pogodaiklimat.ru

Погода и климат >> Архив погоды >> Канада >> Нунавут >> Юрика


ПОГОДА в Юрике

  • Прогноз погоды в Юрике
  • Монитор погоды в Юрике

АРХИВ ПОГОДЫ в Юрике

Время (UTC), дата Ветер
(напр.,м/с)
 
Видим.   Явления Облачность Т
(С)
Тd
(С)
f
(%)
Тe
(С)
Тes
(С)
Комфортность P
(гПа)
Po
(гПа)
Тmin
(С)
Tmax
(С)
R
(мм)
R24
(мм)
S
(см)
15 19.03 В 2 4800 м 10/10 1000 м
[]
-37.9 -41.9 66 -45 -45 опасность
обморожения
1009.7 1008.2
18 19.03 ЮВ 3 24 км ледяные иглы {снег} 10/3 200 м
[St Ci fib]
-37.7 -41.8 65 -48 -48 опасность
обморожения
1011.1 1009.6 -34.8 0.0 12
21 19.03 В 1 24 км 1/0
[]
-38.9 -43.0 65 -44 -44 опасность
обморожения
1012.2 1010.7
00 20.03 В 2 24 км ледяные иглы {снег} ясно -42.1 -46.3 63 -50 -50 опасность
обморожения
1012.4 1010.9 -42.1 -35.8 0.0 12
03 20.03 В 2 24 км ясно -42.4 -46.6 63 -50 -50 опасность
обморожения
1012.7 1011.2
06 20.03 С 1 24 км ледяные иглы {снег} ясно -42.3 -46.5 63 -44 -44 опасность
обморожения
1012.0 1010.5 0.0 14
09 20.03 СВ 1 24 км ясно -43.0 -47.2 63 -49 -49 опасность
обморожения
1011.4 1009.9
12 20.03 ЮЗ 2 24 км ледяные иглы {снег} 9/1 200 м
[St Ac und]
-42.4 -46.7 63 -50 -50 опасность
обморожения
1010.6 1009.1 0.0 12
15 20.03 З 4 2400 м 10/10 200 м
[]
-40.7 -45.0 63 -54 -54 опасность
обморожения
1009.1 1007.6
18 20.03 З 3 9000 м ледяные иглы {снег} 10/4 200 м
[Sc Ac As]
-37.3 -41.3 66 -47 -47 опасность
обморожения
1008.5 1007.0 -36.1 0.0 12
21 20.03 ЮВ 3 24 км 10/10 1000 м
[]
-37.1 -41.1 66 -48 -48 опасность
обморожения
1008.4 1006.9
00 21.03 ЮВ 3 16 км ледяные иглы {снег} 10/5 600 м
[Sc Ac As]
-35.6 -39.5 67 -45 -45 опасность
обморожения
1008.5 1007.0 -44.9 -35.5 0.0 12
03 21.03 С 1 9000 м 9/9 300 м
[]
-34.3 -38.1 68 -36 -36 опасность
обморожения
1008.3 1006.8
06 21.03 ЮВ 4 24 км ледяные иглы {снег} 10/0 2000 м
[Ac As]
-34.4 -38.2 68 -47 -47 опасность
обморожения
1008.1 1006.6 0.0 12
09 21.03 ЮВ 3 24 км 9/0
[]
-34.6 -38.4 68 -45 -45 опасность
обморожения
1008.1 1006.6
12 21.03 В 2 16 км {снег} 9/3 200 м
[St Ac As]
-35.1 -39.0 67 -44 -44 опасность
обморожения
1007.3 1005.8 0.0 12
15 21.03 В 3 24 км 10/10 1000 м
[]
-33.9 -37.7 68 -43 -43 опасность
обморожения
1006.0 1004.5
18 21.03 ЮВ 3 24 км в посл. час снег 9/1 1500 м
[Sc Ac As]
-31.5 -35.1 70 -42 -41 опасность
обморожения
1004.8 1003.3 -31.5 0.0 12
21 21.03 ЮВ 5 24 км 8/8 600 м
[]
-33.2 -37.0 69 -46 -46 опасность
обморожения
1005.0 1003.5
00 22.03 В 2 24 км 9/1 600 м
[Sc Ac As]
-32.6 -36.3 69 -41 -41 опасность
обморожения
1005.9 1004.4 -35.4 -31.0 12
03 22.03 В 4 24 км 4/0
[]
-34.0 -37.7 69 -46 -46 опасность
обморожения
1007.0 1005.5
06 22.03 С 1 24 км ясно -34.8 -38.5 69 -36 -36 опасность
обморожения
1007.7 1006.2
09 22.03 С 1 24 км ясно -38.1 -42.0 67 -40 -40 опасность
обморожения
1008.8 1007.3
12 22.03 СЗ 2 24 км 8/0
[Ac und]
-37.5 -41.4 67 -46 -46 опасность
обморожения
1009.5 1008.0 12
15 22.03 ЮВ 2 24 км ясно -38.9 -43.0 65 -46 -46 опасность
обморожения
1010.2 1008.7
18 22.03 ЮВ 2 4000 м ледяные иглы {снег} 1/1 200 м
[St]
-38.3 -42.3 66 -47 -47 опасность
обморожения
1011.2 1009.7 -34.5 0.0 12
21 22.03 ЮВ 1 800 м н/о -35.9 -39.8 67 -41 -41 опасность
обморожения
1011.5 1010.0
00 23.03 В 2 16 км ледяные иглы {снег, туман} 9/1 300 м
[Sc Ac As Cs]
-36.8 -40.7 67 -44 -44 опасность
обморожения
1012.4 1010.9 -39.8 -34.4 0.0 12
03 23.03 ЮВ 2 9000 м 9/9 300 м
[]
-33.8 -37.5 69 -41 -41 опасность
обморожения
1012.9 1011.4
06 23.03 Ю 2 11 км ледяные иглы {снег} 10/3 300 м
[Sc Ac As]
-33.2 -37.0 69 -40 -40 опасность
обморожения
1014.1 1012.6 0.0 12
09 23.03 Ю 3 19 км 10/0
[]
-31.7 -35.4 70 -42 -42 опасность
обморожения
1015.3 1013.8
12 23.03 ЮВ 3 24 км ледяные иглы {снег} 9/1 600 м
[Sc Ac As Ci fib]
-31.7 -35.3 70 -42 -42 опасность
обморожения
1016.6 1015.1 0.0 12
15 23.03 СЗ 5 4800 м 9/9 100 м
[]
-25.0 -28.1 75 -36 -36 опасность
обморожения
1018.2 1016.7
18 23.03 С 10 2400 м метель {снег} 5/0
[Ac As Ci fib]
-22.6 -25.6 76 -37 -37 опасность
обморожения
1019.4 1017.9 -22.1 0.0 12
21 23.03 СВ 1 1600 м 8/8 1000 м
[]
-23.6 -26.6 76 -27 -27 1021.0 1019.5
00 24.03 1600 м метель н/о -26.0 -29.1 75 -41 -41 опасность
обморожения
1024.0 1022.5 -34.2 -22.0 12
03 24.03 С 12 2400 м 9/9 300 м
[]
-24.9 -28.0 75 -41 -41 опасность
обморожения
1025.2 1023.7
06 24.03 Ю 3 9000 м слаб. снег {метель} 10/10 1000 м
[Sc]
-24.8 -27.6 77 -33 -33 опасность
обморожения
1026.1 1024.6 0.0 12
09 24.03 З 7 4000 м 9/9 300 м
[]
-25.9 -29.1 74 -39 -39 опасность
обморожения
1026.9 1025.4
12 24.03 С 5 9000 м позёмок {снег} 9/1 300 м
[Sc Ac As Ci fib]
-26.6 -29.8 74 -38 -38 опасность
обморожения
1028.0 1026.5 0.0 12
15 24.03 ЮВ 4 3200 м 9/9 300 м
[]
-31.2 -34.7 71 -42 -42 опасность
обморожения
1028.2 1026.7
18 24.03 СЗ 1 24 км ледяные иглы 1/1 300 м
[Sc Ac trans Ci sp]
-31.6 -35.1 71 -36 -35 опасность
обморожения
1027.7 1026.2 -24.4 0.0 12
21 24.03 СВ 2 24 км ясно -32.7 -36.3 70 -39 -39 опасность
обморожения
1026.6 1025.1
00 25.03 В 2 24 км ледяные иглы {снег} ясно -33.7 -37.3 70 -40 -40 опасность
обморожения
1025.4 1023.9 -34.1 -26.3 0.0 12
03 25.03 С 1 24 км 1/0
[]
-35.3 -39.1 68 -37 -37 опасность
обморожения
1023.1 1021.6
06 25.03 С 1 24 км ледяные иглы {снег} ясно -34.8 -38.5 69 -36 -36 опасность
обморожения
1020.6 1019.1 0.0 91
09 25.03 СВ 1 24 км ясно -37.4 -41.2 67 -42 -42 опасность
обморожения
1018.6 1017.1
12 25.03 В 2 24 км ледяные иглы {снег} ясно -36.8 -40.6 68 -44 -44 опасность
обморожения
1015.5 1014.0 0.0 12
15 25.03 В 2 24 км ясно -34.9 -38.8 67 -42 -41 опасность
обморожения
1012.2 1010.7
18 25.03 В 2 24 км ледяные иглы {снег} 3/0
[Ac trans Ci]
-35.1 -39.0 67 -42 -41 опасность
обморожения
1009.1 1007.6 -34.0 0.0 12
21 25.03 ЮВ 6 24 км ясно -34.4 -38.2 68 -49 -49 опасность
обморожения
1006.4 1004.9
00 26.03 ЮВ 8 12 км ледяные иглы {снег} 3/0
[Ac As]
-35.1 -38.9 68 -52 -52 опасность
обморожения
1004.1 1002.6 -38.0 -33.6 0.0 12
03 26.03 ЮВ 5 9000 м ясно -35.8 -39.6 68 -49 -49 опасность
обморожения
1002.6 1001.1
06 26.03 В 3 24 км ледяные иглы {снег} 1/1 100 м
[St Ac As Ci fib]
-37.1 -41.0 67 -47 -47 опасность
обморожения
1001.4 999.9 0.0 21
09 26.03 ЮВ 4 24 км 9/0
[]
-38.1 -42.0 67 -51 -51 опасность
обморожения
1000.6 999.1
12 26.03 С 1 24 км ледяные иглы {снег} 8/1 600 м
[Sc Ac As Ci sp]
-37.5 -41.5 66 -39 -39 опасность
обморожения
1000.2 998.7 0.0 12

 

Местоположение метеостанции Юрика (Нунавут, Канада): широта 79.98 долгота -85.93 высота над уровнем моря 10 м.

В архиве по умолчанию представлена погода в Юрике за последнюю неделю. Архивные данные за месяц целиком и за предыдущие месяцы, начиная с января 2011 года, Вы можете получить, выбрав интересующий диапазон дат из раскрывающегося списка и нажав кнопку "Ввод!".


*Определитесь, кто Вы:
робот инопланетянин человек

Внимание! Время в таблицах - всемирное. Для получения местного времени необходимо прибавить поправку, которая равна -6 ч.

Смотрите также архив погоды в соседних городах и на ближайших метеорологических станциях:

Погода в Юрике (Нунавут, Канада) (1 км)
Погода в Сарнии (Онтарио, Канада) (343 км)
Погода в Исачсене (Нунавут, Канада) (382 км)
Погода Mittarfik Qaanaaq (Гренландия) (452 км)
Погода Kitsissut (Гренландия) (471 км)
Погода в Алерте (Нунавут, Канада) (483 км)
Погода в Аэропорту Ресольют Бэй (Нунавут, Канада) (623 км)
Погода в Ресольют Бэй (Нунавут, Канада) (623 км)
Погода в Арктик Бей (Нунавут, Канада) (777 км)
Погода в Понд-Инлете (Нунавут, Канада) (834 км)

Пояснения к столбцам:

Ветер - указаны скорость ветра в м/с - средняя за 10 мин, порывы в срок и между сроками (в фигурных скобках) и направление, откуда дует ветер: С - северный, СВ - северо-восточный, В - восточный, ЮВ - юго-восточный, Ю - южный, ЮЗ - юго-западный, З - западный, СЗ - северо-западный.
Видимость - горизонтальная дальность видимости в метрах или километрах. При видимости от 1 до 10 км при отсутствии осадков обычно наблюдается дымка, при ухудшении видимости до 1 км и менее - туман. В сухую погоду видимость может ухудшаться дымом, пылью или мглою.
Явления - указаны атмосферные явления, наблюдавшиеся в срок или в последний час перед сроком; фигурными скобками обозначены явления, наблюдавшиеся между сроками (за 1-3 часа до срока); квадратными скобками обозначены град или гололедные отложения с указанием их диаметра в мм.
Облачность - указаны через наклонную черту общая и нижняя облачность в баллах и высота нижней границы облаков в метрах; квадратными скобками обозначены формы облаков: Ci - перистые, Cs - перисто-слоистые, Cc - перисто-кучевые, Ac - высококучевые, As - высокослоистые, Sc - слоисто-кучевые, Ns - слоисто-дождевые, Cu - кучевые, Cb - кучево-дождевые. Подробнее классификацию облаков см. в Атласе облаков (PDF).
T - Температура воздуха - температура, измеренная на высоте 2 м над землей.
Td - Температура точки росы - температура, при понижении до которой содержащийся в воздухе водяной пар достигнет насыщения.
f - Относительная влажность воздуха - влажноcть воздуха, измеренная на высоте 2 м над землей.
Te - Эффективная температура - температура, которую ощущает одетый по сезону человек в тени. Характеристика душности погоды. При расчете учитывается влияние влажности воздуха и скорости ветра на теплоощущения человека.
Tes - Эффективная температура на солнце - температура, которую ощущает человек, с поправкой на солнечный нагрев. Характеристика знойности погоды. Зависит от высоты солнца над горизонтом, облачности и скорости ветра. Ночью, в пасмурную погоду, а также при ветре 12 м/с и более поправка равна нулю.
P - Атмосферное давление - приведенное к уровню моря атмосферное давление.
Po - Атмосферное давление - измеренное на уровне метеостанции атмосферное давление.
Tmin - Минимальная температура - минимум температуры воздуха на высоте 2 м над землей.
Tmax - Максимальная температура - максимум температуры воздуха на высоте 2 м над землей.
R - Количество осадков - Количество выпавших осадков за период времени, мм. При наведении курсора мыши на число - период времени, за который выпало указанное количество осадков.
R24 - Количество осадков - Количество выпавших осадков за 24 часа, мм.
S - Снежный покров - Высота снежного покрова, см. При наведении курсора мыши на число - состояние снежного покрова и степень покрытия местности в баллах.